{"data":{"norad_id":52836,"epoch":"2026-09-20T04:00:03.000096Z","epoch_age_seconds":95190,"freshness":"FRESH","line1":"1 52836U 22062G   26263.16670139  .00002312  00000+0  86251-4 0  9991","line2":"2 52836  53.1602 210.7502 0001266  76.1707 228.9041 15.31699359  5881","mean_motion":15.31699359,"eccentricity":0.0001266,"inclination_deg":53.1602,"raan_deg":210.7502,"arg_perigee_deg":76.1707,"mean_anomaly_deg":228.9041,"bstar":8.6251e-5,"rev_number":588,"period_min":94.013227304615,"perigee_km":469.87483794446,"apogee_km":471.60897408346,"semimajor_km":6848.878906014,"source":"CELESTRAK","updated_at":"2026-09-20T09:00:40.111728Z"}}